{"data":{"norad_id":63132,"intl_designator":"2025-043A","name":"STARLINK-11609 [DTC]","alt_names":[],"object_type":"PAYLOAD","status":"ACTIVE","operator":null,"country":"US","launch_date":"2025-03-03","launch_site_code":"AFETR","launch_vehicle":null,"mission":null,"orbit_class":"UNKNOWN","rcs_meters":null,"size_class":null,"mass_kg":null,"dimensions":null,"purposes":["comms"],"wikipedia_slug":null,"has_3d_model":false,"image_url":null,"decayed_at":null,"tle_current":{"epoch":"2026-05-25T01:41:26.473056Z","epoch_age_seconds":68988,"freshness":"FRESH","line1":"1 63132U 25043A   26145.07044529  .00254621  00000+0  19151-2 0  9996","line2":"2 63132  43.0006 150.4285 0001779 223.0596 137.0133 15.70995436 71472","mean_motion":15.70995436,"eccentricity":0.0001779,"inclination_deg":43.0006,"raan_deg":150.4285,"arg_perigee_deg":223.0596,"mean_anomaly_deg":137.0133,"bstar":0.0019151,"rev_number":7147,"period_min":91.661628481014,"perigee_km":354.8528210052,"apogee_km":357.24884503618,"semimajor_km":6734.1878330207,"source":"CELESTRAK","updated_at":"2026-05-25T13:38:19.913395Z"}}}